SCP
0 -0 -0 -0 -0 -0 -0 -0 -0 -0 -0 -0 -0 0 -0 0 0 0 0 0 0 -0 -0 -0 -0 -0 -0 -0 -0 -0 -0 -0 -0 -0 -0 -0 -0 -0 -0 -0 0 0 0
-0 -0 -0 -0 -0 -0 -0 0 0 0 -0 -0 -0 -0 -0 -0 0 0 0 0 0 0 -0 -0 -0 -0 -0 -0 -0 -0 -0 -0 -0 0 0 0 -0 -0 -0 0 0 0 0
0 -0 -0 -0 -0 -0 -0 -0 0 -0 -0 0 -0 -0 -0 -0 -0 0 0 0 0 -0 0 -0 -0 -0 -0 -0 -0 -0 -0 -0 0 -0 -0 -0 -0 -0 0 0 0 0 0
0 0 -0 0 -0 -0 -0 -0 -0 0 -0 -0 -0 -0 -0 -0 -0 -0 0 0 0 0 0 -0 -0 -0 -0 -0 -0 -0 -0 0 0 0 0 0 0 0 0 0 0 0 0
0 0 0 0 0 -0 -0 -0 -0 0 -0 -0 -0 -0 -0 -0 -0 -0 0 0 0 0 0 0 0 0 0 0 -0 0 0 0 0 -0 0 0 0 0 0 0 0 0 0
0 0 0 0 0 -0 -0 -0 -0 -0 0 -0 -0 0 0 -0 -0 -0 0 0 0 0 0 0 0 0 0 0 0 0 0 0 0 0 0 0 0 0 0 0 0 0 0
0 0 0 0 0 0 0 0 0 -0 0 0 0 0 0 -0 0 -0 -0 -0 0 0 0 0 0 0 0 0 0 0 0 0 0 0 0 0 0 0 0 0 0 0 0
0 0 0 0 0 0 0 0 0 0 0 0 0 0 0 0 0 0 0 0 -0 0 0 0 0 0 0 0 0 0 0 0 0 0 0 0 0 0 0 0 0 0 0
-0 0 0 0 0 0 0 0 0 0 0 0 0 0 0 0 0 0 0 0 0 0 0 0 0 0 0 0 0 0 0 0 0 0 0 0 0 0 0 0 0 0 0
0 -0 -0 0 -0 -0 0 0 0 0 0 0 0 0 0 0 0 0 0 0 0 0 0 0 0 0 0 0 0 0 0 0 0 0 0 0 0 0 0 0 0 -0 0
0 0 0 -0 0 0 0 0 0 0 0 0 0 0 0 0 0 0 0 0 0 0 0 0 0 0 0 0 0 0 0 0 0 0 0 0 0 0 0 0 0 -0 -0
0 0 0 0 0 0 0 0 0 0 0 0 0 0 0 0 0 0 0 0 0 0 0 0 0 0 0 0 0 0 0 0 0 0 0 0 0 0 -0 0 0 0 -0
-0 0 0 0 0 0 0 0 0 0 0 0 0 0 0 0 0 0 0 0 0 0 0 0 0 0 0 0 0 0 0 0 0 0 0 0 0 -0 0 -0 0 -0 0
-0 -0 0 -0 0 0 0 0 0 0 0 0 0 0 0 0 0 0 0 0 0 0 0 0 0 0 0 0 0 0 0 0 0 0 0 0 0 -0 -0 -0 -0 0 0
-0 -0 -0 0 0 0 0 0 0 0 0 0 0 0 0 0 0 0 0 0 0 0 0 0 0 0 0 0 0 0 0 0 0 0 0 0 0 -0 -0 -0 0 0 0
0 -0 -0 -0 0 0 0 0 0 0 0 0 0 0 0 0 0 0 0 0 0 0 0 0 0 0 0 0 0 0 0 0 0 0 0 0 0 0 0 0 0 0 0
0 0 0 -0 0 0 0 0 0 0 0 0 0 0 0 0 0 0 0 0 0 0 0 0 0 0 0 0 0 0 0 0 0 0 0 0 0 0 0 0 0 0 0
0 0 0 0 0 0 0 0 0 0 0 0 0 0 0 0 0 0 0 0 0 0 0 0 0 0 0 0 0 0 0 0 0 0 0 0 0 0 0 0 0 0 0
0 0 0 0 0 0 0 0 0 0 0 0 0 0 0 0 0 0 0 0 0 0 0 0 0 0 0 0 0 0 0 0 0 0 0 0 0 0 0 0 0 0 0
0 0 0 0 0 0 0 0 0 0 0 0 0 0 0 0 0 0 0 0 0 0 0 0 0 0 0 0 0 0 0 0 0 0 0 0 0 0 0 0 0 0 0
0 0 0 0 0 0 0 0 0 0 0 0 0 0 0 0 0 0 0 0 0 0 0 0 0 0 0 0 0 0 0 0 0 0 0 0 0 0 0 0 0 0 0
0 0 0 0 0 0 0 0 0 0 0 0 0 0 0 0 0 0 0 0 0 0 0 0 0 0 0 0 0 0 0 0 0 0 0 0 0 0 0 0 0 0 0
0 0 0 0 0 0 0 0 0 0 0 0 0 0 0 0 0 0 0 0 0 0 0 0 0 0 0 0 0 0 0 0 0 0 0 0 0 0 0 0 0 0 0
0 0 0 0 0 0 0 1 0 0 0 0 0 0 0 0 0 0 0 0 0 0 0 0 0 0 0 0 0 0 0 0 0 0 0 0 0 0 0 0 0 0 0
0 0 0 0 0 0 1 0 1 0 0 0 0 1 0 0 0 0 0 0 0 0 0 0 0 0 0 0 0 0 0 0 0 0 0 0 0 0 0 0 0 0 0
0 0 0 0 0 0 1 0 1 0 1 1 1 1 0 0 0 0 0 0 0 0 0 0 0 0 0 0 0 0 0 0 0 0 0 0 0 0 0 0 0 0 0
Wind_Speed_500mb
33 43 42 36 29 26 30 33 29 26 26 32 30 31 28 25 25 21 18 16 16 20 19 14 12 17 27 28 30 28 27 23 18 18 19 19 22 25 27 30 22 24 26
43 45 43 35 28 29 32 34 31 30 30 35 30 30 27 25 21 18 12 11 15 16 13 12 12 21 26 25 23 22 19 18 20 22 29 16 19 21 23 24 23 23 22
44 48 44 37 30 34 34 35 33 32 34 35 32 26 23 18 14 12 9 9 16 19 18 16 18 21 26 23 20 16 13 17 21 32 32 17 20 21 22 22 21 21 20
43 47 44 39 35 35 33 34 33 34 35 34 31 25 20 15 13 10 12 14 17 23 22 20 23 25 25 24 22 20 16 16 18 25 19 16 16 20 19 19 17 17 19
41 43 43 41 41 39 32 33 35 37 33 31 31 26 20 15 14 15 18 18 20 23 21 20 22 22 22 21 20 19 18 19 19 19 15 12 11 15 14 15 14 13 12
40 43 42 42 43 39 34 33 34 35 30 29 26 23 17 14 14 18 19 20 20 21 20 18 20 18 18 18 17 16 16 16 22 13 14 11 13 9 11 11 11 10 9
48 41 45 44 41 38 35 33 33 31 23 18 18 19 16 14 16 17 13 10 18 19 17 15 15 14 13 12 12 12 12 12 14 10 9 9 5 4 9 10 10 8 7
42 36 48 46 39 37 36 33 31 27 19 16 10 7 17 19 22 22 18 12 8 14 15 13 12 10 8 7 6 6 6 6 10 5 4 1 2 4 6 7 8 8 7
38 39 46 47 44 37 35 36 32 28 22 18 11 12 18 17 18 18 21 18 13 10 12 11 9 8 6 5 3 2 1 1 6 4 2 3 6 7 9 9 6 7 8
37 38 41 43 45 43 40 38 35 32 28 24 19 19 16 21 19 19 17 27 22 14 11 11 11 10 9 8 7 6 5 6 4 8 8 12 12 13 12 12 12 12 10
41 41 39 38 39 38 39 40 36 32 30 29 27 26 24 16 20 17 16 22 26 24 15 16 16 14 11 10 11 11 11 7 11 11 12 15 16 17 17 17 16 17 17
45 44 43 41 39 44 39 39 38 37 36 34 33 32 30 18 16 16 20 21 21 18 14 16 17 14 11 6 16 15 13 14 15 15 17 19 20 20 20 20 20 20 22
48 52 44 47 43 42 42 36 33 32 33 34 33 32 27 24 28 34 23 24 22 21 17 17 18 15 10 16 14 15 16 19 16 19 20 21 22 23 23 25 26 26 27
44 52 57 44 47 43 39 36 32 32 32 30 32 32 31 31 29 22 20 18 19 20 20 21 19 21 22 22 22 23 23 24 22 23 24 26 28 28 29 29 30 31 32
46 46 58 54 50 48 43 39 35 33 33 29 29 32 31 27 26 24 23 21 21 20 20 20 20 22 23 23 24 25 26 27 27 30 31 33 29 32 33 33 34 36 36
46 47 50 61 53 47 47 40 39 36 32 30 31 31 33 27 27 25 24 23 22 23 22 22 21 21 23 25 27 28 29 29 31 33 35 36 36 32 34 35 37 37 38
42 43 47 56 61 52 50 46 40 36 33 33 35 33 33 33 29 26 24 23 22 23 25 26 27 29 28 27 28 31 32 33 34 36 37 37 36 35 29 32 35 37 38
41 44 44 51 59 61 56 48 47 41 38 36 34 35 37 35 32 29 29 28 25 25 26 25 25 25 27 25 26 25 26 32 34 35 35 36 35 36 36 32 30 34 35
41 41 45 49 51 56 57 48 45 43 44 41 37 35 35 37 35 33 31 31 27 30 30 30 29 29 29 30 32 33 38 40 37 34 35 34 35 38 39 35 32 27 25
40 42 42 44 48 50 52 51 44 43 43 42 38 36 34 33 32 31 28 24 25 27 29 33 34 32 30 28 34 41 40 38 38 35 33 32 33 30 26 25 24 29 31
41 44 46 45 47 50 53 55 54 51 47 41 38 40 38 36 34 32 31 28 28 28 24 24 23 26 28 26 31 37 33 34 32 31 27 29 17 21 31 30 32 32 31
41 44 47 46 42 47 50 56 60 58 45 38 41 43 42 39 36 36 35 33 32 29 27 26 28 27 31 27 34 30 24 19 21 20 18 17 30 28 31 31 37 33 33
38 44 46 46 46 46 46 48 53 38 40 44 52 47 44 41 41 41 39 35 34 31 30 31 32 35 37 35 37 28 14 12 17 18 24 28 26 31 31 32 30 33 35
36 39 43 45 46 47 49 49 53 59 48 49 39 40 40 42 44 41 39 37 33 31 36 37 36 37 37 41 40 45 45 41 35 27 22 28 36 32 36 35 32 33 36
39 40 48 44 43 46 50 54 53 57 46 33 30 34 38 39 38 38 37 37 36 36 39 39 38 38 39 39 46 46 47 45 45 47 41 33 29 32 37 35 37 36 37
39 43 45 44 47 44 45 49 50 49 46 36 44 44 35 38 36 40 43 42 42 41 40 39 37 36 37 42 44 46 45 44 43 41 42 45 48 41 30 36 39 39 41
Wind_Direction_500mb
161 172 174 170 170 165 164 165 161 159 154 143 136 133 130 135 134 135 139 146 146 142 136 130 119 112 128 124 115 118 107 103 109 94 78 73 69 67 69 77 76 79 87
159 170 173 170 168 162 159 161 161 159 155 147 141 145 147 146 146 147 151 155 161 168 159 135 117 116 131 138 128 122 114 102 97 84 62 51 69 67 68 72 73 74 83
158 167 171 168 168 159 154 156 159 155 152 149 149 156 160 157 150 164 167 160 158 155 147 131 119 104 127 131 143 143 124 103 97 87 73 53 60 64 65 67 68 70 78
158 167 171 169 166 157 156 155 155 148 147 148 156 165 169 172 178 181 164 150 149 132 128 127 122 111 122 128 126 125 119 112 103 91 87 86 52 62 63 65 67 69 77
164 161 172 168 165 165 162 157 151 149 157 161 172 179 180 185 180 168 157 154 147 142 137 135 128 120 122 125 124 117 109 103 95 71 96 108 62 52 56 56 63 71 72
160 173 173 168 167 168 170 162 157 159 166 176 173 178 181 177 176 165 157 154 139 139 142 137 136 127 121 120 118 113 104 97 77 77 79 91 127 35 45 51 55 62 69
170 173 174 169 169 173 174 170 167 169 173 186 172 180 173 159 139 142 139 154 155 149 153 152 139 136 131 122 112 104 97 90 90 80 77 83 114 11 31 40 42 45 50
161 171 172 170 174 178 179 177 175 173 171 161 157 142 161 167 151 158 151 163 181 181 165 161 160 159 152 144 131 110 95 86 65 51 65 37 1 348 7 20 23 18 15
162 168 171 172 175 180 183 182 182 181 178 167 168 185 178 188 181 185 171 174 181 182 166 180 188 187 192 192 189 182 145 103 92 276 330 332 320 315 323 325 329 343 340
168 165 170 177 174 181 183 185 186 188 188 182 184 202 206 198 206 196 193 184 191 200 208 207 206 214 224 233 247 269 285 297 301 308 307 285 298 297 298 302 302 307 307
172 172 176 183 174 182 184 186 191 195 198 198 201 207 211 220 211 214 193 210 213 227 217 217 212 223 241 261 274 277 284 296 286 290 287 292 293 291 293 295 297 297 292
177 177 182 181 182 186 182 193 195 201 204 206 212 224 220 225 214 213 234 223 227 233 231 227 233 239 252 271 302 290 294 278 288 285 283 293 291 289 290 290 288 293 294
185 180 187 184 183 190 184 199 190 203 201 207 213 217 205 210 218 218 230 237 233 235 242 255 255 261 264 244 252 270 274 282 285 282 282 287 290 290 290 291 293 292 291
192 198 187 194 188 193 191 193 193 202 199 204 209 211 212 212 219 219 219 235 236 232 234 228 241 249 254 263 263 269 278 280 280 278 282 288 290 292 291 290 291 292 292
196 199 204 192 199 197 195 196 197 199 204 203 209 213 213 217 223 217 219 220 227 230 237 240 251 257 263 262 268 277 281 283 285 284 286 288 288 291 292 293 292 291 291
201 201 209 207 200 200 202 202 201 200 207 204 208 216 214 214 222 221 222 226 227 231 237 240 241 254 258 262 269 274 278 280 282 284 287 291 295 293 294 294 292 291 291
208 203 207 214 213 202 209 206 205 207 206 210 211 212 225 217 220 221 226 232 235 239 239 243 248 251 254 261 267 272 279 278 278 280 284 290 295 297 291 289 291 291 291
208 206 205 220 215 216 213 212 215 213 213 214 218 222 222 226 221 223 223 227 229 234 242 246 249 246 256 255 261 262 266 270 277 282 284 288 291 293 294 292 287 287 290
211 209 208 221 218 218 218 217 221 223 224 222 220 221 227 226 225 223 233 238 238 238 242 242 246 251 253 264 268 271 275 283 285 283 286 287 287 286 286 287 287 284 284
215 210 210 223 217 220 219 216 219 220 222 222 222 222 222 227 223 224 225 231 232 240 245 250 251 257 269 270 274 280 283 287 285 281 281 279 279 283 283 283 277 284 285
215 211 211 217 218 218 217 216 217 218 224 222 222 226 224 224 227 230 233 231 236 242 255 260 261 261 273 295 297 292 301 287 285 283 270 276 266 283 289 285 287 287 285
220 217 214 215 215 218 221 219 221 223 222 223 225 228 227 230 235 238 240 236 235 251 258 253 268 271 271 275 281 294 313 318 281 284 262 265 290 285 289 298 293 288 285
219 221 220 217 215 215 213 228 227 226 228 225 230 230 231 231 234 238 240 241 246 250 248 264 265 266 274 277 276 271 282 262 299 299 278 288 287 293 292 305 296 291 287
228 217 223 222 219 217 213 218 227 224 223 231 235 236 238 236 235 239 243 246 245 247 253 255 266 267 262 271 271 271 272 276 283 294 272 279 291 289 294 303 292 293 295
221 227 220 212 219 219 215 213 227 231 233 230 229 235 232 230 226 227 234 237 240 246 254 262 261 267 266 264 267 270 272 274 273 275 283 283 280 281 291 296 297 296 295
236 234 231 225 219 214 217 215 217 229 229 223 219 227 224 227 226 221 223 227 233 241 247 252 259 259 262 262 265 267 272 275 270 271 278 282 286 284 289 281 291 306 298
Wind_Speed_850mb
33 43 42 36 29 26 30 33 29 26 26 32 30 31 28 25 25 21 18 16 16 20 19 14 12 17 27 28 30 28 27 23 18 18 19 19 22 25 27 30 22 24 26
43 45 43 35 28 29 32 34 31 30 30 35 30 30 27 25 21 18 12 11 15 16 13 12 12 21 26 25 23 22 19 18 20 22 29 16 19 21 23 24 23 23 22
44 48 44 37 30 34 34 35 33 32 34 35 32 26 23 18 14 12 9 9 16 19 18 16 18 21 26 23 20 16 13 17 21 32 32 17 20 21 22 22 21 21 20
43 47 44 39 35 35 33 34 33 34 35 34 31 25 20 15 13 10 12 14 17 23 22 20 23 25 25 24 22 20 16 16 18 25 19 16 16 20 19 19 17 17 19
41 43 43 41 41 39 32 33 35 37 33 31 31 26 20 15 14 15 18 18 20 23 21 20 22 22 22 21 20 19 18 19 19 19 15 12 11 15 14 15 14 13 12
40 43 42 42 43 39 34 33 34 35 30 29 26 23 17 14 14 18 19 20 20 21 20 18 20 18 18 18 17 16 16 16 22 13 14 11 13 9 11 11 11 10 9
48 41 45 44 41 38 35 33 33 31 23 18 18 19 16 14 16 17 13 10 18 19 17 15 15 14 13 12 12 12 12 12 14 10 9 9 5 4 9 10 10 8 7
42 36 48 46 39 37 36 33 31 27 19 16 10 7 17 19 22 22 18 12 8 14 15 13 12 10 8 7 6 6 6 6 10 5 4 1 2 4 6 7 8 8 7
38 39 46 47 44 37 35 36 32 28 22 18 11 12 18 17 18 18 21 18 13 10 12 11 9 8 6 5 3 2 1 1 6 4 2 3 6 7 9 9 6 7 8
37 38 41 43 45 43 40 38 35 32 28 24 19 19 16 21 19 19 17 27 22 14 11 11 11 10 9 8 7 6 5 6 4 8 8 12 12 13 12 12 12 12 10
41 41 39 38 39 38 39 40 36 32 30 29 27 26 24 16 20 17 16 22 26 24 15 16 16 14 11 10 11 11 11 7 11 11 12 15 16 17 17 17 16 17 17
45 44 43 41 39 44 39 39 38 37 36 34 33 32 30 18 16 16 20 21 21 18 14 16 17 14 11 6 16 15 13 14 15 15 17 19 20 20 20 20 20 20 22
48 52 44 47 43 42 42 36 33 32 33 34 33 32 27 24 28 34 23 24 22 21 17 17 18 15 10 16 14 15 16 19 16 19 20 21 22 23 23 25 26 26 27
44 52 57 44 47 43 39 36 32 32 32 30 32 32 31 31 29 22 20 18 19 20 20 21 19 21 22 22 22 23 23 24 22 23 24 26 28 28 29 29 30 31 32
46 46 58 54 50 48 43 39 35 33 33 29 29 32 31 27 26 24 23 21 21 20 20 20 20 22 23 23 24 25 26 27 27 30 31 33 29 32 33 33 34 36 36
46 47 50 61 53 47 47 40 39 36 32 30 31 31 33 27 27 25 24 23 22 23 22 22 21 21 23 25 27 28 29 29 31 33 35 36 36 32 34 35 37 37 38
42 43 47 56 61 52 50 46 40 36 33 33 35 33 33 33 29 26 24 23 22 23 25 26 27 29 28 27 28 31 32 33 34 36 37 37 36 35 29 32 35 37 38
41 44 44 51 59 61 56 48 47 41 38 36 34 35 37 35 32 29 29 28 25 25 26 25 25 25 27 25 26 25 26 32 34 35 35 36 35 36 36 32 30 34 35
41 41 45 49 51 56 57 48 45 43 44 41 37 35 35 37 35 33 31 31 27 30 30 30 29 29 29 30 32 33 38 40 37 34 35 34 35 38 39 35 32 27 25
40 42 42 44 48 50 52 51 44 43 43 42 38 36 34 33 32 31 28 24 25 27 29 33 34 32 30 28 34 41 40 38 38 35 33 32 33 30 26 25 24 29 31
41 44 46 45 47 50 53 55 54 51 47 41 38 40 38 36 34 32 31 28 28 28 24 24 23 26 28 26 31 37 33 34 32 31 27 29 17 21 31 30 32 32 31
41 44 47 46 42 47 50 56 60 58 45 38 41 43 42 39 36 36 35 33 32 29 27 26 28 27 31 27 34 30 24 19 21 20 18 17 30 28 31 31 37 33 33
38 44 46 46 46 46 46 48 53 38 40 44 52 47 44 41 41 41 39 35 34 31 30 31 32 35 37 35 37 28 14 12 17 18 24 28 26 31 31 32 30 33 35
36 39 43 45 46 47 49 49 53 59 48 49 39 40 40 42 44 41 39 37 33 31 36 37 36 37 37 41 40 45 45 41 35 27 22 28 36 32 36 35 32 33 36
39 40 48 44 43 46 50 54 53 57 46 33 30 34 38 39 38 38 37 37 36 36 39 39 38 38 39 39 46 46 47 45 45 47 41 33 29 32 37 35 37 36 37
39 43 45 44 47 44 45 49 50 49 46 36 44 44 35 38 36 40 43 42 42 41 40 39 37 36 37 42 44 46 45 44 43 41 42 45 48 41 30 36 39 39 41
Wind_Direction_850mb
161 172 174 170 170 165 164 165 161 159 154 143 136 133 130 135 134 135 139 146 146 142 136 130 119 112 128 124 115 118 107 103 109 94 78 73 69 67 69 77 76 79 87
159 170 173 170 168 162 159 161 161 159 155 147 141 145 147 146 146 147 151 155 161 168 159 135 117 116 131 138 128 122 114 102 97 84 62 51 69 67 68 72 73 74 83
158 167 171 168 168 159 154 156 159 155 152 149 149 156 160 157 150 164 167 160 158 155 147 131 119 104 127 131 143 143 124 103 97 87 73 53 60 64 65 67 68 70 78
158 167 171 169 166 157 156 155 155 148 147 148 156 165 169 172 178 181 164 150 149 132 128 127 122 111 122 128 126 125 119 112 103 91 87 86 52 62 63 65 67 69 77
164 161 172 168 165 165 162 157 151 149 157 161 172 179 180 185 180 168 157 154 147 142 137 135 128 120 122 125 124 117 109 103 95 71 96 108 62 52 56 56 63 71 72
160 173 173 168 167 168 170 162 157 159 166 176 173 178 181 177 176 165 157 154 139 139 142 137 136 127 121 120 118 113 104 97 77 77 79 91 127 35 45 51 55 62 69
170 173 174 169 169 173 174 170 167 169 173 186 172 180 173 159 139 142 139 154 155 149 153 152 139 136 131 122 112 104 97 90 90 80 77 83 114 11 31 40 42 45 50
161 171 172 170 174 178 179 177 175 173 171 161 157 142 161 167 151 158 151 163 181 181 165 161 160 159 152 144 131 110 95 86 65 51 65 37 1 348 7 20 23 18 15
162 168 171 172 175 180 183 182 182 181 178 167 168 185 178 188 181 185 171 174 181 182 166 180 188 187 192 192 189 182 145 103 92 276 330 332 320 315 323 325 329 343 340
168 165 170 177 174 181 183 185 186 188 188 182 184 202 206 198 206 196 193 184 191 200 208 207 206 214 224 233 247 269 285 297 301 308 307 285 298 297 298 302 302 307 307
172 172 176 183 174 182 184 186 191 195 198 198 201 207 211 220 211 214 193 210 213 227 217 217 212 223 241 261 274 277 284 296 286 290 287 292 293 291 293 295 297 297 292
177 177 182 181 182 186 182 193 195 201 204 206 212 224 220 225 214 213 234 223 227 233 231 227 233 239 252 271 302 290 294 278 288 285 283 293 291 289 290 290 288 293 294
185 180 187 184 183 190 184 199 190 203 201 207 213 217 205 210 218 218 230 237 233 235 242 255 255 261 264 244 252 270 274 282 285 282 282 287 290 290 290 291 293 292 291
192 198 187 194 188 193 191 193 193 202 199 204 209 211 212 212 219 219 219 235 236 232 234 228 241 249 254 263 263 269 278 280 280 278 282 288 290 292 291 290 291 292 292
196 199 204 192 199 197 195 196 197 199 204 203 209 213 213 217 223 217 219 220 227 230 237 240 251 257 263 262 268 277 281 283 285 284 286 288 288 291 292 293 292 291 291
201 201 209 207 200 200 202 202 201 200 207 204 208 216 214 214 222 221 222 226 227 231 237 240 241 254 258 262 269 274 278 280 282 284 287 291 295 293 294 294 292 291 291
208 203 207 214 213 202 209 206 205 207 206 210 211 212 225 217 220 221 226 232 235 239 239 243 248 251 254 261 267 272 279 278 278 280 284 290 295 297 291 289 291 291 291
208 206 205 220 215 216 213 212 215 213 213 214 218 222 222 226 221 223 223 227 229 234 242 246 249 246 256 255 261 262 266 270 277 282 284 288 291 293 294 292 287 287 290
211 209 208 221 218 218 218 217 221 223 224 222 220 221 227 226 225 223 233 238 238 238 242 242 246 251 253 264 268 271 275 283 285 283 286 287 287 286 286 287 287 284 284
215 210 210 223 217 220 219 216 219 220 222 222 222 222 222 227 223 224 225 231 232 240 245 250 251 257 269 270 274 280 283 287 285 281 281 279 279 283 283 283 277 284 285
215 211 211 217 218 218 217 216 217 218 224 222 222 226 224 224 227 230 233 231 236 242 255 260 261 261 273 295 297 292 301 287 285 283 270 276 266 283 289 285 287 287 285
220 217 214 215 215 218 221 219 221 223 222 223 225 228 227 230 235 238 240 236 235 251 258 253 268 271 271 275 281 294 313 318 281 284 262 265 290 285 289 298 293 288 285
219 221 220 217 215 215 213 228 227 226 228 225 230 230 231 231 234 238 240 241 246 250 248 264 265 266 274 277 276 271 282 262 299 299 278 288 287 293 292 305 296 291 287
228 217 223 222 219 217 213 218 227 224 223 231 235 236 238 236 235 239 243 246 245 247 253 255 266 267 262 271 271 271 272 276 283 294 272 279 291 289 294 303 292 293 295
221 227 220 212 219 219 215 213 227 231 233 230 229 235 232 230 226 227 234 237 240 246 254 262 261 267 266 264 267 270 272 274 273 275 283 283 280 281 291 296 297 296 295
236 234 231 225 219 214 217 215 217 229 229 223 219 227 224 227 226 221 223 227 233 241 247 252 259 259 262 262 265 267 272 275 270 271 278 282 286 284 289 281 291 306 298